Weather History for Salina, KS

Change the Weather History Date:

Wednesday, January 15, 2014

  Actual Average Record
Temperature  
Mean Temperature 36 °F 31 °F  
Max Temperature 51 °F 41 °F 66 °F (1921)
Min Temperature 21 °F 20 °F -15 °F (1905)
Degree Days  
Heating Degree Days 29 34  
Month to date heating degree days 558 510  
Since 1 July heating degree days 2698 2474  
Cooling Degree Days 0 0  
Month to date cooling degree days 0 0  
Year to date cooling degree days 0 0  
Moisture  
Dew Point 24 °F    
Average Humidity 60    
Maximum Humidity 84    
Minimum Humidity 36    
Precipitation  
Precipitation 0.00 in 0.02 in 0.33 in (1984)
Month to date precipitation 0.14 0.24  
Year to date precipitation 0.14 0.24  
Sea Level Pressure  
Sea Level Pressure 30.12 in    
Wind  
Wind Speed 8 mph (SW)    
Max Wind Speed 17 mph    
Max Gust Speed 21 mph    
Visibility 10 miles    
Events      
T = Trace of Precipitation, MM = Missing Value Source: NWS Daily Summary

Daily Weather History Graph

Daily Weather History Graph

Search for Another Location

Airport:

Trip Planner

Search our weather history database for the weather conditions in past years. The results will help you decide how hot, cold, wet, or windy it might be!

Date:

Astronomy

Jan. 15, 2014 Rise Set
Actual Time 7:47 AM CST 5:33 PM CST
Civil Twilight 7:18 AM CST 6:02 PM CST
Nautical Twilight 6:45 AM CST 6:34 PM CST
Astronomical Twilight 6:13 AM CST 7:06 PM CST
Moon 5:31 PM CST (1/15) 7:04 AM CST (1/15)
Length of Visible Light 10h 43m
Length of Day
9h 45m
Full, 100% of the Moon is Illuminated
Jan 15
Full
Jan 15
Full
Jan 23
Last Quarter
Jan 30
New
Feb 6
First Quarter

Hourly Weather History & Observations

Time (CST) Temp. Windchill Dew Point Humidity Pressure Visibility Wind Dir Wind Speed Gust Speed Precip Events Conditions
12:53 AM 30.0 °F 22.4 °F 19.9 °F 66% 30.33 in 10.0 mi West 8.1 mph - N/A   Mostly Cloudy
1:53 AM 26.1 °F 17.6 °F 19.0 °F 75% 30.32 in 10.0 mi West 8.1 mph - N/A   Clear
2:53 AM 26.1 °F 17.6 °F 19.9 °F 78% 30.32 in 10.0 mi West 8.1 mph - N/A   Clear
3:53 AM 26.1 °F 16.8 °F 21.0 °F 81% 30.31 in 10.0 mi WNW 9.2 mph - N/A   Clear
4:53 AM 25.0 °F 20.7 °F 19.9 °F 81% 30.30 in 10.0 mi NNW 3.5 mph - N/A   Clear
5:53 AM 24.1 °F - 19.0 °F 81% 30.31 in 10.0 mi Calm Calm - N/A   Clear
6:53 AM 23.0 °F - 18.0 °F 81% 30.30 in 10.0 mi Calm Calm - N/A   Clear
7:53 AM 21.9 °F 17.2 °F 18.0 °F 85% 30.30 in 10.0 mi SSW 3.5 mph - N/A   Mostly Cloudy
8:53 AM 26.1 °F 20.5 °F 21.0 °F 81% 30.29 in 10.0 mi SW 4.6 mph - N/A   Overcast
9:53 AM 30.0 °F 23.2 °F 23.0 °F 75% 30.27 in 10.0 mi SSW 6.9 mph - N/A   Overcast
10:53 AM 34.0 °F 28.8 °F 25.0 °F 70% 30.24 in 10.0 mi South 5.8 mph - N/A   Partly Cloudy
11:53 AM 39.0 °F 34.0 °F 26.1 °F 60% 30.19 in 10.0 mi SSE 6.9 mph - N/A   Clear
12:53 PM 45.0 °F 38.9 °F 23.0 °F 42% 30.10 in 10.0 mi SSW 12.7 mph - N/A   Clear
1:53 PM 46.9 °F - 24.1 °F 41% 30.06 in 10.0 mi SSW 10.4 mph - N/A   Overcast
2:53 PM 48.9 °F - 25.0 °F 39% 30.01 in 10.0 mi SSW 11.5 mph - N/A   Mostly Cloudy
3:53 PM 50.0 °F - 25.0 °F 38% 29.98 in 10.0 mi SSW 17.3 mph - N/A   Clear
4:53 PM 48.9 °F - 28.0 °F 44% 29.96 in 10.0 mi SSW 9.2 mph - N/A   Clear
5:53 PM 45.0 °F 40.6 °F 30.0 °F 56% 29.93 in 10.0 mi South 8.1 mph - N/A   Overcast
6:53 PM 43.0 °F 38.2 °F 28.9 °F 58% 29.91 in 10.0 mi South 8.1 mph - N/A   Overcast
7:53 PM 43.0 °F 37.7 °F 28.9 °F 58% 29.89 in 10.0 mi South 9.2 mph - N/A   Overcast
8:53 PM 39.9 °F 32.9 °F 28.9 °F 65% 29.86 in 10.0 mi SSW 11.5 mph - N/A   Clear
9:53 PM 44.1 °F 40.1 °F 28.0 °F 53% 29.87 in 10.0 mi SSE 6.9 mph - N/A   Mostly Cloudy
10:53 PM 44.1 °F 39.5 °F 27.0 °F 51% 29.86 in 10.0 mi WSW 8.1 mph - N/A   Overcast
11:53 PM 44.1 °F 37.7 °F 26.1 °F 49% 29.87 in 10.0 mi WNW 12.7 mph - N/A   Overcast